User: anonymous   Login
Location: Fort Wayne
(41.1310°N, 85.1290°W)
Time: 16:40:01
(UTC-04:00)
Language:

OPAL - Orbit

View from above orbital plane
View from above orbital plane
View from above satellite
View from above satellite

Ground track
Ground track

The orbit data is extracted from the following two-line orbital elements,

1 26063U 00004C   15117.16088440  .00000129  00000-0  63591-4 0  9997
2 26063 100.2240 326.3980 0036513 354.7107 005.3683 14.36528157799095
Epoch (UTC): 27 April 2015 03:51:40
Eccentricity: 0.0036513
inclination: 100.2240°
perigee height: 744 km
apogee height: 796 km
right ascension of ascending node: 326.3980°
argument of perigee: 354.7107°
revolutions per day: 14.36528157
mean anomaly at epoch: 5.3683°
orbit number at epoch: 79909

The dashed part of the orbit path shows where the satellite is in the earth's shadow,  

DLR